Retour au catalogue

STARLINK-5470

ActifCommunicationsVLEO
NORAD 54776·PAYLOAD·🇺🇸 United States

Lancé Dec 17, 2022 depuis Cape Canaveral Space Force Station

Loading…

Prochains Passages (prochaines 24 heures)

TLE

FraisSource: CelesTrak SupGP

Époque: Sep 14, 2026, 20:54 UTC

1 54776C 22175U   26257.87131944  .00808410  00000+0  55757-2 0  2573
2 54776  53.1587 259.9096 0001102  90.9758 206.0282 15.73505104    14

Suivez STARLINK-5470 en temps réel avec AllMySat

Download on the App Store